Weather reports worldwide

Advertisment
Winston Salem, nc, United States of America (2072822): temperature & dewpoint: 10.01.2019 12:00:00 - 16.01.2019 12:00:00 (EST)Winston Salem, nc, United States of America (2072822): wind speed: 10.01.2019 12:00:00 - 16.01.2019 12:00:00 (EST)Winston Salem, nc, United States of America (2072822): wind direction: 10.01.2019 12:00:00 - 16.01.2019 12:00:00 (EST)Winston Salem, nc, United States of America (2072822): reduced air pressure: 10.01.2019 12:00:00 - 16.01.2019 12:00:00 (EST)Winston Salem, nc, United States of America (2072822): visibility: 10.01.2019 12:00:00 - 16.01.2019 12:00:00 (EST)Winston Salem, nc, United States of America (2072822): precipitation: 10.01.2019 12:00:00 - 16.01.2019 12:00:00 (EST)
Date & Time tt [°C] td [°C] ff [km/h] ff [kn] dd ppp [hPa] vv [km] rr [mm]
16.01.2019 12:00:00 8,9 -1,7 18 10 NW 1023,1 16 -
16.01.2019 11:00:00 6,1 -2,8 8 4 - 1023,4 16 -
16.01.2019 10:00:00 3,3 -2,8 8 4 WSW 1023,4 16 -
16.01.2019 09:00:00 1,1 -3,3 11 6 WNW 1023,0 16 -
16.01.2019 08:00:00 -3,3 -4,4 0 0 N 1022,5 16 -
16.01.2019 07:00:00 -2,8 -4,4 0 0 N 1022,5 16 -
16.01.2019 06:00:00 -1,1 -3,9 0 0 N 1022,2 16 -
16.01.2019 05:00:00 -0,6 -3,3 5 3 WSW 1021,7 16 -
16.01.2019 04:00:00 -1,7 -3,3 0 0 N 1022,0 16 -
16.01.2019 03:00:00 -1,7 -3,9 0 0 N 1022,3 16 -
16.01.2019 02:00:00 -2,2 -3,3 0 0 N 1022,0 16 -
16.01.2019 01:00:00 -1,7 -3,3 0 0 N 1022,5 16 -
16.01.2019 00:00:00 -1,7 -3,3 0 0 N 1022,9 16 -
15.01.2019 23:00:00 0,0 -2,8 0 0 N 1023,0 16 -
15.01.2019 22:00:00 1,1 -2,8 0 0 N 1023,0 16 -
15.01.2019 21:00:00 2,2 -2,8 0 0 N 1022,9 16 -
15.01.2019 20:00:00 2,8 -2,2 9 5 N 1023,2 16 -
15.01.2019 19:00:00 3,9 -2,2 13 7 N 1022,8 16 -
15.01.2019 18:00:00 5,0 -1,7 9 5 N 1022,1 16 -
15.01.2019 17:00:00 7,8 -1,7 11 6 NW 1021,9 16 -
15.01.2019 16:00:00 8,3 -2,2 0 0 N 1021,8 16 -
15.01.2019 15:00:00 8,3 -1,7 15 8 NW 1021,7 16 -
15.01.2019 14:00:00 7,2 -1,7 5 3 - 1021,6 16 -
15.01.2019 13:00:00 6,7 -1,1 8 4 - 1023,0 16 -
15.01.2019 12:00:00 6,1 -1,1 11 6 NW 1024,1 16 -
15.01.2019 11:00:00 5,0 -1,7 5 3 NNW 1024,7 16 -
15.01.2019 10:00:00 3,9 -1,1 13 7 N 1024,7 16 -
15.01.2019 09:00:00 2,8 1,1 0 0 N 1024,0 11 -
15.01.2019 08:00:00 -0,6 -1,1 0 0 N 1023,4 4,8 -
15.01.2019 07:00:00 1,1 0,0 0 0 N 1023,1 11 -
15.01.2019 06:00:00 2,2 1,1 0 0 N 1022,5 11 -
15.01.2019 05:00:00 2,2 1,1 0 0 N 1022,4 6 -
15.01.2019 04:00:00 2,8 1,1 0 0 N 1022,5 11 -
15.01.2019 03:00:00 2,8 1,7 5 3 N 1022,6 10 -
15.01.2019 02:00:00 3,3 1,1 0 0 N 1022,3 13 -
15.01.2019 01:00:00 2,8 1,7 0 0 N 1022,1 13 -
15.01.2019 00:00:00 2,8 1,7 0 0 N 1022,7 13 -
14.01.2019 23:00:00 3,3 1,7 0 0 N 1023,1 11 -
14.01.2019 22:00:00 2,8 1,7 0 0 N 1022,9 10 -
14.01.2019 21:00:00 2,8 1,7 0 0 N 1022,9 13 -
14.01.2019 20:00:00 2,8 1,7 0 0 N 1023,0 15 -
14.01.2019 19:00:00 3,3 1,7 0 0 N 1023,4 15 -
14.01.2019 18:00:00 3,9 1,7 0 0 N 1023,1 16 -
14.01.2019 17:00:00 3,3 1,7 0 0 N 1023,0 16 -
14.01.2019 16:00:00 3,9 1,1 5 3 N 1023,0 16 -
14.01.2019 15:00:00 3,9 0,6 5 3 NW 1023,0 16 -
14.01.2019 14:00:00 3,3 0,6 5 3 NW 1023,3 16 -
14.01.2019 13:00:00 2,8 0,0 5 3 NNE 1023,6 16 -
14.01.2019 12:00:00 2,2 -0,6 0 0 N 1024,7 16 -
14.01.2019 11:00:00 1,7 -1,1 5 3 - 1025,6 16 -
14.01.2019 10:00:00 0,6 -1,7 9 5 ENE 1025,4 16 -
14.01.2019 09:00:00 0,0 -1,7 5 3 ENE 1024,9 16 -
14.01.2019 08:00:00 0,0 -1,7 11 6 NE 1024,5 16 -
14.01.2019 07:00:00 0,0 -1,1 11 6 NE 1024,3 16 -
14.01.2019 06:00:00 0,0 -0,6 9 5 NNE 1023,6 10 -
14.01.2019 05:00:00 0,0 -0,6 11 6 NNE 1023,1 10 -
14.01.2019 04:00:00 0,6 -0,6 8 4 NNE 1023,4 13 -
14.01.2019 03:00:00 0,6 -0,6 8 4 ENE 1023,1 16 -
14.01.2019 02:00:00 0,0 -0,6 8 4 NE 1022,8 16 -
14.01.2019 01:00:00 0,6 -0,6 8 4 NE 1022,6 16 -
14.01.2019 00:00:00 0,6 -0,6 11 6 NE 1022,9 16 -
13.01.2019 23:00:00 0,6 -0,6 15 8 NE 1023,2 16 -
13.01.2019 22:00:00 0,6 0,0 9 5 NNE 1023,2 8 -
13.01.2019 21:00:00 0,6 -0,6 13 7 NNE 1022,8 16 -
13.01.2019 20:00:00 0,6 -0,6 11 6 NE 1022,5 16 -
13.01.2019 19:00:00 0,6 -0,6 13 7 NE 1022,0 16 -
13.01.2019 18:00:00 0,6 -0,6 15 8 NE 1021,4 16 -
13.01.2019 17:00:00 0,6 0,0 11 6 NE 1021,0 16 -
13.01.2019 16:00:00 0,6 0,0 15 8 NNE 1021,0 16 -
13.01.2019 15:00:00 1,1 0,0 13 7 NNE 1020,8 4,8 -
13.01.2019 14:00:00 1,1 0,0 15 8 NE - 6 -
13.01.2019 13:00:00 0,6 0,0 16 9 NNE 1020,7 4,8 -
13.01.2019 12:00:00 0,6 0,0 16 9 NE 1021,4 3,2 -
13.01.2019 11:00:00 1,0 -1,0 18 10 NE - - -
13.01.2019 10:00:00 0,6 -0,6 22 12 NE 1022,3 16 -
13.01.2019 09:00:00 0,6 0,0 13 7 NE 1021,8 16 1,0
13.01.2019 08:00:00 0,0 -0,6 16 9 NNE 1022,5 13 2,3
13.01.2019 07:00:00 0,0 -0,6 18 10 NE - 10 0,5
13.01.2019 06:00:00 0,0 -0,6 16 9 NNE 1023,0 8 0,8
13.01.2019 05:00:00 0,0 -0,6 13 7 N 1024,2 4,8 0,3
13.01.2019 04:00:00 0,0 -1,1 18 10 NE 1022,7 4,8 2,0
13.01.2019 03:00:00 0,0 -0,6 18 10 NE 1023,7 4,8 0,5
13.01.2019 02:00:00 0,0 -1,1 11 6 NNE 1025,9 8 1,3
13.01.2019 01:00:00 0,0 -1,1 15 8 ENE 1026,0 10 1,0
13.01.2019 00:00:00 0,0 -1,1 11 6 NE 1027,7 6 0,3
12.01.2019 23:00:00 0,0 -1,7 18 10 NE 1028,0 8 0,0
12.01.2019 22:00:00 0,0 -1,1 15 8 NE 1028,9 8 0,0
12.01.2019 21:00:00 -0,6 -1,7 13 7 NE 1028,7 13 0,3
12.01.2019 20:00:00 0,0 -2,2 15 8 NE 1028,9 15 0,3
12.01.2019 19:00:00 0,6 -2,8 13 7 NE 1028,8 16 0,0
12.01.2019 18:00:00 1,1 -3,3 11 6 ENE 1029,6 16 0,3
12.01.2019 17:00:00 2,2 -3,3 13 7 NE 1029,5 16 0,0
12.01.2019 16:00:00 2,8 -5,6 5 3 ENE 1029,6 16 0,0
12.01.2019 15:00:00 3,3 -7,8 9 5 E 1030,1 16 -
12.01.2019 14:00:00 3,3 -6,7 8 4 E 1030,3 16 -
12.01.2019 13:00:00 3,3 -5,6 15 8 ENE 1030,2 16 -
12.01.2019 12:00:00 2,8 -7,2 5 3 ENE 1032,0 16 -
12.01.2019 11:00:00 2,8 -6,1 0 0 N 1032,5 16 -
12.01.2019 10:00:00 2,2 -6,7 5 3 ESE 1032,6 16 -
12.01.2019 09:00:00 1,7 -6,1 5 3 E 1031,8 16 -
12.01.2019 08:00:00 1,1 -5,6 0 0 N 1031,6 16 -
12.01.2019 07:00:00 0,6 -6,1 9 5 ENE 1030,3 16 -
12.01.2019 06:00:00 1,1 -6,7 0 0 N 1031,1 16 -
12.01.2019 05:00:00 0,6 -6,1 5 3 NNE 1030,6 16 -
12.01.2019 04:00:00 1,7 -7,2 0 0 N 1030,4 16 -
12.01.2019 03:00:00 1,1 -7,2 0 0 N 1030,3 16 -
12.01.2019 02:00:00 1,7 -6,7 0 0 N 1029,9 16 -
12.01.2019 01:00:00 1,1 -6,1 5 3 NE 1029,8 16 -
12.01.2019 00:00:00 1,7 -8,3 0 0 N 1029,6 16 -
11.01.2019 23:00:00 0,6 -7,2 0 0 N 1029,6 16 -
11.01.2019 22:00:00 0,6 -7,8 5 3 E 1029,2 16 -
11.01.2019 21:00:00 1,1 -8,9 0 0 N 1029,1 16 -
11.01.2019 20:00:00 0,6 -8,3 0 0 N 1029,1 16 -
11.01.2019 19:00:00 2,8 -10,0 0 0 N 1028,2 16 -
11.01.2019 18:00:00 3,9 -10,0 5 3 E 1027,4 16 -
11.01.2019 17:00:00 5,6 -10,0 9 5 E 1026,9 16 -
11.01.2019 16:00:00 6,7 -11,1 0 0 N 1026,5 16 -
11.01.2019 15:00:00 6,1 -10,6 5 3 - 1026,7 16 -
11.01.2019 14:00:00 5,6 -10,6 0 0 N 1026,6 16 -
11.01.2019 13:00:00 4,4 -10,0 13 7 ENE 1026,7 16 -
11.01.2019 12:00:00 2,8 -9,4 5 3 - 1027,6 16 -
11.01.2019 11:00:00 1,7 -9,4 0 0 N 1029,1 16 -
11.01.2019 10:00:00 0,0 -9,4 13 7 NNE 1028,8 16 -
11.01.2019 09:00:00 -2,8 -8,3 0 0 N 1028,2 16 -
11.01.2019 08:00:00 -4,4 -10,0 5 3 NW 1027,1 16 -
11.01.2019 07:00:00 -6,1 -10,0 0 0 N 1026,4 16 -
11.01.2019 06:00:00 -6,1 -10,0 0 0 N 1025,8 16 -
11.01.2019 05:00:00 -4,4 -10,6 0 0 N 1025,2 16 -
11.01.2019 04:00:00 -4,4 -10,6 0 0 N 1025,0 16 -
11.01.2019 03:00:00 -4,4 -10,6 5 3 N 1024,6 16 -
11.01.2019 02:00:00 -3,9 -10,6 9 5 NNW 1024,3 16 -
11.01.2019 01:00:00 -3,9 -11,1 11 6 NNW 1023,9 16 -
11.01.2019 00:00:00 -3,3 -11,1 16 9 NNW 1023,8 16 -
10.01.2019 23:00:00 -3,3 -11,1 21 11 NNW 1024,3 16 -
10.01.2019 22:00:00 -2,8 -11,1 13 7 NW 1024,1 16 -
10.01.2019 21:00:00 -2,2 -11,1 22 12 NW 1023,6 16 -
10.01.2019 20:00:00 -1,7 -10,6 22 12 NNW 1023,2 16 -
10.01.2019 19:00:00 0,0 -10,6 24 13 N 1022,7 16 -
10.01.2019 18:00:00 0,6 -10,6 22 12 N 1022,4 16 -
10.01.2019 17:00:00 2,2 -10,6 16 9 NNW 1021,8 16 -
10.01.2019 16:00:00 3,3 -10,6 15 8 NW 1021,3 16 -
10.01.2019 15:00:00 3,9 -10,6 21 11 NW 1020,4 16 -
10.01.2019 14:00:00 2,8 -11,1 15 8 WNW 1020,1 16 -
10.01.2019 13:00:00 2,2 -11,1 18 10 WNW 1020,5 16 -
10.01.2019 12:00:00 0,6 -11,1 15 8 WNW 1021,2 16 -

tt = temperature
td = dewpoint
ff = wind speed
dd = wind direction
ppp = reduced air pressure
vv = visibility
rr = precipitation

Next stations